Regional Weather Roundup
Issued by NWS

Home | Current Version | Previous Version | Text Only | Print | Product List | Glossary On
Versions: 1 2 3 4 5 6 7 8 9 10 11 12 13 14 15 16 17 18 19 20 21 22 23 24 25 26 27 28 29 30 31 32 33 34 35 36 37 38 39 40 41 42 43 44 45 46 47 48 49 50
000
ASUS45 KSLC 241910
RWRUT

UTAH REGIONAL WEATHER ROUNDUP
NATIONAL WEATHER SERVICE SALT LAKE CITY UT
100 PM MDT TUE MAY 24 2016

UTZ001>011-023>025-242000-

NORTHERN UTAH

CITY           SKY/WX    TMP DP  RH WIND       PRES   REMARKS
BRIGHAM CITY     N/A     65  34  31 SW8       29.82R
HILL AFB       PTSUNNY   62  30  29 SW17      29.82S
LOGAN          MOSUNNY   66  42  41 VRB6      29.80F
OGDEN          PTSUNNY   63  29  27 W15G28    29.80F
PROVO AIRPORT  PTSUNNY   64  30  27 SE23G35   29.85R
SALT LAKE CITY PTSUNNY   64  37  36 NW20G32   29.81R
VERNAL         SUNNY     68  27  21 SW12      29.85F
WENDOVER       PTSUNNY   64  30  27 SE10      29.84R
HEBER CITY     PTSUNNY   59  28  31 SW16      29.85S
WEST JORDAN    MOSUNNY   68  30  24 S13G22    29.82R

$$

UTZ012>022-026-027-242000-

SOUTHERN/CENTRAL UTAH

CITY           SKY/WX    TMP DP  RH WIND       PRES   REMARKS
BLANDING       SUNNY     67  20  16 S18G24    30.03F
BRYCE CANYON   PTSUNNY   57  21  24 S23G33    29.99S
CEDAR CITY     MOSUNNY   64  26  23 SW22G29   29.88F
DELTA          MOSUNNY   66  21  18 S13       29.83F
HANKSVILLE     MOSUNNY   72  19  14 SW14      29.86S
MILFORD        LGT RAIN  61  25  25 W29G39    29.86R
MOAB/CYNLANDS  MOSUNNY   72  21  14 VRB6G23   29.83F
PRICE          CLOUDY    63  24  22 W21       29.88R
ST GEORGE      MOCLDY    75  28  17 SW26G33   29.83S

$$

REGIONAL REPORTS     COLORADO/ARIZONA

CITY           SKY/WX    TMP DP  RH WIND       PRES   REMARKS
CRAIG, CO      CLOUDY    68  26  20 W13       29.89F
GRAND JUNCTION SUNNY     73  22  14 VRB6      29.85F
RIFLE          MOSUNNY   72  23  16 MISG      29.87F
MONTROSE       CLOUDY    70  21  15 W14G26    29.90F
CORTEZ         SUNNY     72  24  16 S15G25    29.98F
PAGE, AZ       MOSUNNY   72  20  14 SW9G28    29.87F
GRAND CANYON   MOSUNNY   64  23  21 SW26G41   30.01F
KINGMAN        MOSUNNY   72  34  24 SW18G30   29.92R
FLAGSTAFF      SUNNY     58  27  30 SW25G36   30.05S

$$

REGIONAL REPORTS    NEVADA/IDAHO/WYOMING

CITY           SKY/WX    TMP DP  RH WIND       PRES   REMARKS
LAS VEGAS, NV  MOSUNNY   74  30  19 S20G31    29.79R
ELY            CLOUDY    50  31  48 NW17      29.89R
ELKO           PTSUNNY   60  39  45 NE16      29.87S
POCATELLO, ID  PTSUNNY   61  42  49 SE7       29.85F
BURLEY         PTSUNNY   58  41  53 W9        29.85S
EVANSTON, WY   TSTM      47  36  65 CALM      29.91S
ROCK SPRINGS   PTSUNNY   61  27  27 SE15      29.87F
KEMMERER         N/A     46  36  66 E7        29.95R

$$



USA.gov is the U.S. government's official web portal to all federal, state and local government web resources and services.